Zurück zum Katalog

STARLINK-34550

AktivKommunikationVLEO
NORAD 64683·PAYLOAD·🇺🇸 United States

Gestartet Jun 28, 2025 von Cape Canaveral Space Force Station

Loading…

Nächste Überflüge (nächste 24 Stunden)

TLE

AktuellSource: CelesTrak SupGP

Epoche: Sep 15, 2026, 03:44 UTC

1 64683C 25139V   26258.15604167  .00045624  00000+0  13479-2 0  2584
2 64683  53.1593 322.7245 0001292  92.1979 220.9968 15.34369556    15

Verfolge STARLINK-34550 in Echtzeit mit AllMySat

Download on the App Store